This is the latest recevied weather packets stored in our database for station/object KI4HRG. If no packets are shown the sender has not sent any weather packets the latest 10 day(s).
| Time | Temp. | Humidity | Pressure | Rain* | Wind** | Luminosity | Snow |
|---|---|---|---|---|---|---|---|
| 1777649649 | 15.56° C | 76% | 1015.5 hPa | 0 mm | - | 149 W/m² | - |
| 1777649344 | 15.56° C | 77% | 1015.3 hPa | 0 mm | - | 143 W/m² | - |
| 1777649041 | 15.56° C | 79% | 1015.5 hPa | 0 mm | - | 132 W/m² | - |
| 1777648739 | 15.56° C | 77% | 1015.4 hPa | 0 mm | - | 121 W/m² | - |
| 1777648435 | 15.56° C | 80% | 1015.4 hPa | 0 mm | - | 87 W/m² | - |
| 1777648131 | 15.56° C | 78% | 1015.4 hPa | 0 mm | - | 79 W/m² | - |
| 1777647827 | 15° C | 77% | 1015.3 hPa | 0 mm | - | 82 W/m² | - |
| 1777647524 | 15° C | 76% | 1015.2 hPa | 0 mm | - | 87 W/m² | - |
| 1777647221 | 15° C | 78% | 1015.1 hPa | 0 mm | - | 83 W/m² | - |
| 1777646918 | 15° C | 78% | 1015.1 hPa | 0 mm | - | 77 W/m² | - |
| 1777646613 | 15° C | 77% | 1015.2 hPa | 0 mm | - | 76 W/m² | - |
| 1777646310 | 15° C | 76% | 1014.9 hPa | 0 mm | - | 70 W/m² | - |
| 1777646007 | 15° C | 78% | 1014.9 hPa | 0 mm | - | 77 W/m² | - |
| 1777645704 | 15° C | 79% | 1015 hPa | 0 mm | - | 80 W/m² | - |
| 1777645400 | 15° C | 77% | 1014.6 hPa | 0 mm | - | 89 W/m² | - |
| 1777645096 | 15° C | 77% | 1014.7 hPa | 0 mm | - | 94 W/m² | - |
| 1777644792 | 15° C | 77% | 1014.4 hPa | 0 mm | - | 101 W/m² | - |
| 1777644490 | 15° C | 77% | 1014.3 hPa | 0 mm | - | 98 W/m² | - |
| 1777644186 | 14.44° C | 76% | 1014.4 hPa | 0 mm | - | 98 W/m² | - |
| 1777643883 | 14.44° C | 77% | 1014.4 hPa | 0 mm | - | 94 W/m² | - |
| 1777643581 | 14.44° C | 76% | 1014.8 hPa | 0 mm | - | 76 W/m² | - |
| 1777643276 | 14.44° C | 76% | 1014.3 hPa | 0 mm | - | 78 W/m² | - |
| 1777642974 | 14.44° C | 76% | 1014.6 hPa | 0 mm | - | 77 W/m² | - |
| 1777642670 | 14.44° C | 80% | 1014.7 hPa | 0 mm | - | 69 W/m² | - |
| 1777642367 | 14.44° C | 81% | 1014.6 hPa | 0 mm | - | 82 W/m² | - |
* Rain latest hour (hover to see other rain measurements)
** Current wind speed in m/s (hover to see current wind gust speed)